• In Uzbekistan
  • List of Countries
  • For 7 days
  • Water Temperature
  • Satellite Maps
  • Weather Map
  • Weather Widgets
  • user-avatar
    Login

    Hourly Weather Baraut

    Today, 20 October, Friday

    Time Temperature Precipitation Wind Pressure Humidity
    00:00 +29°C° 0 mm 1 mps 736 mmHg 37%
    01:00 +28°C° 0 mm 1 mps 736 mmHg 38%
    02:00 +28°C° 0 mm 1 mps 736 mmHg 39%
    03:00 +27°C° 0 mm 1 mps 736 mmHg 40%
    04:00 +27°C° 0 mm 1 mps 736 mmHg 41%
    05:00 +26°C° 0 mm 1 mps 736 mmHg 42%
    06:00 +27°C° 0 mm 1 mps 737 mmHg 41%
    07:00 +28°C° 0 mm 1 mps 737 mmHg 39%
    08:00 +29°C° 0 mm 1 mps 737 mmHg 38%
    09:00 +31°C° 0 mm 1 mps 737 mmHg 34%
    10:00 +32°C° 0 mm 0 mps 737 mmHg 30%
    11:00 +34°C° 0 mm 0 mps 737 mmHg 26%
    12:00 +36°C° 0 mm 1 mps 737 mmHg 24%
    13:00 +37°C° 0 mm 1 mps 736 mmHg 22%
    14:00 +38°C° 0 mm 2 mps 735 mmHg 19%
    15:00 +37°C° 0 mm 2 mps 735 mmHg 21%
    16:00 +35°C° 0 mm 2 mps 735 mmHg 23%
    17:00 +34°C° 0 mm 2 mps 735 mmHg 25%
    18:00 +32°C° 0 mm 1 mps 735 mmHg 25%
    19:00 +31°C° 0 mm 1 mps 735 mmHg 25%
    20:00 +30°C° 0 mm 1 mps 735 mmHg 25%
    21:00 +30°C° 0 mm 1 mps 735 mmHg 26%
    22:00 +29°C° 0 mm 1 mps 735 mmHg 27%
    23:00 +28°C° 0 mm 1 mps 735 mmHg 27%

    Tomorrow, 21 October, Saturday

    Time Temperature Precipitation Wind Pressure Humidity
    00:00 +28°C° 0 mm 1 mps 735 mmHg 28%
    01:00 +27°C° 0 mm 1 mps 735 mmHg 29%
    02:00 +27°C° 0 mm 1 mps 735 mmHg 30%
    03:00 +26°C° 0 mm 1 mps 735 mmHg 31%
    04:00 +26°C° 0 mm 1 mps 735 mmHg 32%
    05:00 +25°C° 0 mm 1 mps 735 mmHg 33%
    06:00 +26°C° 0 mm 1 mps 735 mmHg 33%
    07:00 +27°C° 0 mm 1 mps 736 mmHg 33%
    08:00 +28°C° 0 mm 1 mps 736 mmHg 32%
    09:00 +30°C° 0 mm 1 mps 736 mmHg 28%
    10:00 +32°C° 0 mm 2 mps 736 mmHg 24%
    11:00 +35°C° 0 mm 2 mps 736 mmHg 20%
    12:00 +36°C° 0 mm 3 mps 735 mmHg 18%
    13:00 +37°C° 0 mm 3 mps 734 mmHg 16%
    14:00 +38°C° 0 mm 4 mps 734 mmHg 14%
    15:00 +36°C° 0 mm 3 mps 733 mmHg 16%
    16:00 +35°C° 0 mm 3 mps 733 mmHg 18%
    17:00 +32°C° 0 mm 2 mps 733 mmHg 20%
    18:00 +31°C° 0 mm 2 mps 733 mmHg 19%
    19:00 +30°C° 0 mm 2 mps 733 mmHg 18%
    20:00 +29°C° 0 mm 2 mps 734 mmHg 18%
    21:00 +28°C° 0 mm 2 mps 734 mmHg 18%
    22:00 +28°C° 0 mm 2 mps 734 mmHg 18%
    23:00 +27°C° 0 mm 2 mps 734 mmHg 18%

    Day after tomorrow, 22 October, Sunday

    Time Temperature Precipitation Wind Pressure Humidity
    00:00 +27°C° 0 mm 2 mps 733 mmHg 18%
    01:00 +26°C° 0 mm 2 mps 733 mmHg 19%
    02:00 +25°C° 0 mm 2 mps 733 mmHg 19%
    03:00 +25°C° 0 mm 2 mps 733 mmHg 19%
    04:00 +25°C° 0 mm 2 mps 733 mmHg 20%
    05:00 +24°C° 0 mm 1 mps 733 mmHg 20%
    06:00 +25°C° 0 mm 1 mps 734 mmHg 21%
    07:00 +26°C° 0 mm 1 mps 735 mmHg 21%
    08:00 +27°C° 0 mm 1 mps 735 mmHg 22%
    09:00 +30°C° 0 mm 1 mps 735 mmHg 20%
    10:00 +32°C° 0 mm 2 mps 735 mmHg 17%
    11:00 +35°C° 0 mm 2 mps 735 mmHg 15%
    12:00 +36°C° 0 mm 3 mps 735 mmHg 13%
    13:00 +37°C° 0 mm 3 mps 734 mmHg 12%
    14:00 +38°C° 0 mm 4 mps 733 mmHg 11%
    15:00 +36°C° 0 mm 3 mps 733 mmHg 13%
    16:00 +35°C° 0 mm 2 mps 733 mmHg 15%
    17:00 +32°C° 0 mm 1 mps 733 mmHg 17%
    18:00 +31°C° 0 mm 1 mps 733 mmHg 17%
    19:00 +30°C° 0 mm 1 mps 734 mmHg 16%
    20:00 +29°C° 0 mm 1 mps 734 mmHg 16%
    21:00 +29°C° 0 mm 1 mps 734 mmHg 17%
    22:00 +28°C° 0 mm 1 mps 735 mmHg 17%
    23:00 +27°C° 0 mm 1 mps 735 mmHg 18%

    23 October, Monday

    Time Temperature Precipitation Wind Pressure Humidity
    00:00 +27°C° 0 mm 1 mps 735 mmHg 19%
    01:00 +26°C° 0 mm 1 mps 734 mmHg 20%
    02:00 +26°C° 0 mm 1 mps 734 mmHg 21%
    03:00 +25°C° 0 mm 1 mps 734 mmHg 21%
    04:00 +25°C° 0 mm 1 mps 735 mmHg 22%
    05:00 +24°C° 0 mm 1 mps 735 mmHg 23%
    06:00 +25°C° 0 mm 1 mps 735 mmHg 24%
    07:00 +26°C° 0 mm 1 mps 736 mmHg 25%
    08:00 +27°C° 0 mm 2 mps 737 mmHg 27%
    09:00 +29°C° 0 mm 2 mps 737 mmHg 24%
    10:00 +31°C° 0 mm 2 mps 737 mmHg 22%
    11:00 +34°C° 0 mm 2 mps 737 mmHg 19%
    12:00 +34°C° 0 mm 1 mps 736 mmHg 18%
    13:00 +35°C° 0 mm 1 mps 736 mmHg 17%
    14:00 +36°C° 0 mm 1 mps 735 mmHg 16%
    15:00 +35°C° 0 mm 1 mps 735 mmHg 18%
    16:00 +33°C° 0 mm 1 mps 735 mmHg 21%
    17:00 +32°C° 0 mm 2 mps 735 mmHg 23%
    18:00 +31°C° 0 mm 2 mps 735 mmHg 24%
    19:00 +30°C° 0 mm 2 mps 736 mmHg 26%
    20:00 +29°C° 0 mm 2 mps 736 mmHg 27%
    21:00 +28°C° 0 mm 2 mps 736 mmHg 29%
    22:00 +27°C° 0 mm 2 mps 737 mmHg 30%
    23:00 +27°C° 0 mm 2 mps 737 mmHg 32%

    24 October, Tuesday

    Time Temperature Precipitation Wind Pressure Humidity
    00:00 +26°C° 0 mm 2 mps 737 mmHg 33%
    01:00 +26°C° 0 mm 2 mps 737 mmHg 35%
    02:00 +25°C° 0 mm 2 mps 737 mmHg 36%
    03:00 +24°C° 0 mm 2 mps 737 mmHg 38%
    04:00 +24°C° 0 mm 2 mps 737 mmHg 39%
    05:00 +23°C° 0 mm 2 mps 737 mmHg 41%
    06:00 +24°C° 0 mm 2 mps 738 mmHg 41%
    07:00 +25°C° 0 mm 2 mps 739 mmHg 41%
    08:00 +26°C° 0 mm 3 mps 739 mmHg 41%
    09:00 +28°C° 0 mm 2 mps 739 mmHg 36%
    10:00 +30°C° 0 mm 2 mps 739 mmHg 32%
    11:00 +32°C° 0 mm 2 mps 740 mmHg 28%
    12:00 +34°C° 0 mm 2 mps 739 mmHg 25%
    13:00 +34°C° 0 mm 1 mps 738 mmHg 22%
    14:00 +35°C° 0 mm 1 mps 738 mmHg 20%
    15:00 +33°C° 0 mm 1 mps 738 mmHg 22%
    16:00 +32°C° 0 mm 1 mps 738 mmHg 25%
    17:00 +31°C° 0 mm 1 mps 738 mmHg 27%
    18:00 +30°C° 0 mm 1 mps 738 mmHg 29%
    19:00 +29°C° 0 mm 1 mps 738 mmHg 32%
    20:00 +28°C° 0 mm 2 mps 739 mmHg 34%
    21:00 +27°C° 0 mm 1 mps 739 mmHg 36%
    22:00 +26°C° 0 mm 1 mps 739 mmHg 39%
    23:00 +26°C° 0 mm 1 mps 739 mmHg 41%

    25 October, Wednesday

    Time Temperature Precipitation Wind Pressure Humidity
    00:00 +25°C° 0 mm 1 mps 739 mmHg 43%
    01:00 +25°C° 0 mm 1 mps 739 mmHg 45%
    02:00 +24°C° 0 mm 1 mps 738 mmHg 46%
    03:00 +24°C° 0 mm 1 mps 739 mmHg 48%
    04:00 +23°C° 0 mm 1 mps 739 mmHg 49%
    05:00 +23°C° 0 mm 1 mps 739 mmHg 50%
    06:00 +24°C° 0 mm 1 mps 740 mmHg 49%
    07:00 +25°C° 0 mm 1 mps 741 mmHg 47%
    08:00 +26°C° 0 mm 2 mps 741 mmHg 46%
    09:00 +28°C° 0 mm 2 mps 741 mmHg 40%
    10:00 +30°C° 0 mm 2 mps 742 mmHg 35%
    11:00 +32°C° 0 mm 2 mps 742 mmHg 30%
    12:00 +33°C° 0 mm 1 mps 741 mmHg 27%
    13:00 +34°C° 0 mm 1 mps 740 mmHg 23%
    14:00 +33°C° 0 mm 0 mps 740 mmHg 20%
    15:00 +33°C° 0 mm 1 mps 740 mmHg 22%
    16:00 +32°C° 0 mm 1 mps 739 mmHg 24%
    17:00 +31°C° 0 mm 1 mps 739 mmHg 25%
    18:00 +29°C° 0 mm 2 mps 740 mmHg 28%
    19:00 +28°C° 0 mm 2 mps 740 mmHg 31%
    20:00 +27°C° 0 mm 3 mps 740 mmHg 34%
    21:00 +26°C° 0 mm 2 mps 740 mmHg 37%
    22:00 +26°C° 0 mm 2 mps 740 mmHg 40%
    23:00 +25°C° 0 mm 2 mps 740 mmHg 43%
    Show more